521  
ASUS41 KBOX 150710  
RWRBOX  
 
REGIONAL WEATHER ROUNDUP  
NATIONAL WEATHER SERVICE BOSTON/NORTON MA  
300 AM EDT SUN SEP 15 2019  
 
NOTE: "FAIR" INDICATES FEW OR NO CLOUDS BELOW 12,000 FEET WITH NO  
SIGNIFICANT WEATHER AND/OR S TO VISIBILITY
.  
 
MAZALL-150800-  
EASTERN MASSACHUSETTS  
 
CITY SKY/WX TMP DP RH WIND PRES REMARKS
 
BOSTON FAIR 68 64 87 SW9 30.11F  
BEVERLY FOG 64 62 93 CALM 30.10F VSB 1/4  
LAWRENCE FAIR 63 61 93 S3 30.13S FOG  
BEDFORD FAIR 68 63 84 SW5 30.10F  
BLUE HILL N/A 65 65 100 SW8 30.13S  
NORWOOD FAIR 66 63 90 CALM 30.12F FOG  
MARSHFIELD MOCLDY 68 68 100 SW7 30.12F  
PLYMOUTH LGT RAIN 67 66 97 SW9 30.14S  
TAUNTON CLOUDY 69 66 90 SW6 30.13S  
NEW BEDFORD CLOUDY 69 66 90 SW8 30.13F  

 
 
MAZALL-150800-  
CAPE COD AND THE ISLANDS  
 
CITY SKY/WX TMP DP RH WIND PRES REMARKS
 
FALMOUTH NOT AVBL  
HYANNIS LGT RAIN 69 66 90 SW10 30.13F FOG  
CHATHAM LGT RAIN 68 67 96 SW8 30.16F FOG  
PROVINCETOWN CLOUDY 66 65 96 SW13 30.13F  
NANTUCKET CLOUDY 67 65 93 S9 30.16F  
MARTHAS VNYRD LGT RAIN 68 65 90 SW8 30.15F FOG  

 
 
MAZALL-150800-  
CENTRAL AND WESTERN MASSACHUSETTS  
 
CITY SKY/WX TMP DP RH WIND PRES REMARKS
 
WORCESTER MOCLDY 63 63 100 W10 30.15S  
FITCHBURG FOG 58 57 97 CALM 30.13F VSB 1/2  
ORANGE FOG 57 55 93 CALM 30.14F VSB 1/4  
SPRINGFIELD CLOUDY 65 65 100 SW3 30.13S  
WESTFIELD FOG 62 61 96 CALM 30.14S VSB 1/4  
NORTH ADAMS MOCLDY 62 58 86 W8 30.15F  
PITTSFIELD CLOUDY 61 57 87 W3 30.16S  

 
 
RIZALL-150800-  
RHODE ISLAND  
 
CITY SKY/WX TMP DP RH WIND PRES REMARKS
 
PROVIDENCE CLOUDY 68 68 100 SW5 30.14F  
NEWPORT LGT RAIN 69 68 96 VRB5 30.14F FOG  
BLOCK ISLAND CLOUDY N/A N/A N/A SW16 30.16F HAZE  
SMITHFIELD FAIR 65 65 100 VRB3 30.15S  
WESTERLY CLOUDY 70 70 100 W6 30.15S  

 
 
CTZALL-150800-  
CONNECTICUT  
 
CITY SKY/WX TMP DP RH WIND PRES REMARKS
 
BRADLEY INTL FOG 62 61 96 SW5 30.13F VSB 1  
HARTFORD FOG 65 64 97 CALM 30.13S VSB 1/2  
BRIDGEPORT MOCLDY 70 67 90 CALM 30.15F  
DANBURY FAIR 66 65 96 SW3 30.17F  
GROTON LGT RAIN N/A N/A N/A W5 30.14F  
NEW HAVEN CLOUDY 70 68 93 CALM 30.15S FOG  
CHESTER FAIR 68 68 100 CALM 30.16S  
MERIDEN FAIR 65 64 97 S5 30.14F FOG  
WILLIMANTIC FOG 63 63 100 N3 30.15F VSB 1/4  
OXFORD FAIR 64 64 100 CALM 30.17S  

 
 
MEZ002-015-021-024-NHZ003-005-008-011-012-014-VTZ005-008-150800-  
NORTHERN NEW ENGLAND  
 
CITY SKY/WX TMP DP RH WIND PRES REMARKS
 
PORTLAND ME FAIR 61 59 93 S5 30.09S  
BANGOR ME CLOUDY 62 60 93 S5 30.05F  
CONCORD NH FOG 57 56 96 S3 30.11S VSB 1/4  
MANCHESTER NH FOG 63 62 97 CALM 30.10S VSB 1/2  
NASHUA NH FOG 60 60 100 CALM 30.12S VSB 1/2  
PORTSMOUTH NH CLOUDY 65 64 97 W6 30.09F  
JAFFREY NH FAIR 63 60 90 VRB5 30.14F  
KEENE NH CLOUDY 61 61 100 S5 30.13S  
BURLINGTON VT FAIR 62 52 69 CALM 30.10F  
MT. WASHINGTON LGT RAIN 43 43 100 W61G74 N/A VSB 1/16WCI 29  

 
 
NYZ052-076-150800-  
EASTERN NEW YORK  
 
CITY SKY/WX TMP DP RH WIND PRES REMARKS
 
ALBANY FAIR 59 57 93 CALM 30.16S  
NEW YORK CITY CLOUDY 73 66 78 W3 30.14F  

 
 
ANZALL-150800-  
MARINE OBSERVATIONS  
 
STATION/POSITION TIME TEMP WIND PRES VSBY WAVE
 
AIR SEA DIR/SP/G HT/PER  
(UTC) (F) (DEG/KT/KT) (MB) (MI) (FT/S)  
BOSTON BUOY 0650 66 64 200/ 10/ 10 1018.6F 2/ 9  
BUZZARDS BAY 0600 67 220/ 19/ 20 1021.5F  
NANTUCKET SOUND 0650 69 69 220/ 14/ 17 N/A 2/ 3  
MASS BAY-STELLWA 0604 65 63 220/ 8/ 10 1019.4F 1 7/8 3/11  
ISLE OF SHOALS 0600 65 230/ 11/ 12 1019.1F  
S OF BLOCK IS 0700 66 N/A 4/ 6  

 
   
.....................KEY......................
 
 
SKY/WX - SKY CONDITION/PRESENT WEATHER  
TMP - TEMPERATURE IN FAHRENHEIT  
DWPT - DEWPOINT IN FAHRENHEIT  
RH - RELATIVE HUMIDITY IN PERCENT  
WIND - DIRECTION AND SPEED IN MPH  
PRES - MEAN SEA LEVEL PRESSURE IN INCHES OF HG  
WCI - WIND CHILL INDEX  
VSB - VISIBILITY IN MILES  
HX - HEAT INDEX  
TC - TEMPERATURE IN CELSIUS  
VRB - VARIABLE WIND DIRECTION  
N/A - NOT AVAILABLE  
 
 
CLICK HERE TO GO TO PREVIOUS BULLETINS.

The Nexlab MA Page
The Nexlab RI Page
The Nexlab NH Page
The Nexlab CT Page Main Text Page